DW9356 Weather Reports


Display with metric or nautical units.
time (UTC)temp
F
wind
direction
speed
MPH
gust
MPH
rain 1hr
in
rain 24hr
in
rain mn
in
humidity
%
barometer
mb
20260905202825 94 71 1.0 4.0 0.00 0.00 0.00 62 1011.2
20260905202259 94 32 2.0 4.0 0.00 0.00 0.00 61 1011.4
20260905201755 95 5 2.0 4.0 0.00 0.00 0.00 61 1011.4
20260905201228 95 81 2.0 5.0 0.00 0.00 0.00 61 1011.3
20260905200948 95 329 1.0 5.0 0.00 0.00 0.00 60 1011.4
20260905200200 95 55 1.0 6.0 0.00 0.00 0.00 61 1011.5
20260905195633 96 82 2.0 6.0 0.00 0.00 0.00 61 1011.6
20260905195129 96 90 2.0 5.0 0.00 0.00 0.00 60 1011.6
20260905194829 96 86 2.0 5.0 0.00 0.00 0.00 61 1011.6
20260905194033 96 306 2.0 5.0 0.00 0.00 0.00 59 1011.6
20260905193507 97 22 2.0 5.0 0.00 0.00 0.00 60 1011.8
20260905193002 97 163 2.0 3.0 0.00 0.00 0.00 61 1011.8
20260905192459 96 126 1.0 3.0 0.00 0.00 0.00 57 1011.9
20260905191956 96 198 2.0 5.0 0.00 0.00 0.00 60 1012.0
20260905191453 96 120 2.0 5.0 0.00 0.00 0.00 59 1012.2
20260905190928 96 200 1.0 5.0 0.00 0.00 0.00 61 1012.2
20260905190400 95 268 2.0 6.0 0.00 0.00 0.00 62 1012.2
20260905185833 93 302 2.0 6.0 0.00 0.00 0.00 63 1012.3
20260905185309 94 275 1.0 4.0 0.00 0.00 0.00 61 1012.3
20260905184742 93 340 2.0 4.0 0.00 0.00 0.00 65 1012.3
20260905184505 93 310 1.0 4.0 0.00 0.00 0.00 63 1012.4
20260905183713 94 285 1.0 4.0 0.00 0.00 0.00 64 1012.5
20260905183209 94 180 1.0 3.0 0.00 0.00 0.00 65 1012.5
20260905182708 93 277 1.0 3.0 0.00 0.00 0.00 65 1012.6
20260905182206 92 295 1.0 3.0 0.00 0.00 0.00 65 1012.7
20260905181639 93 277 1.0 3.0 0.00 0.00 0.00 64 1012.9
20260905181136 93 183 1.0 3.0 0.00 0.00 0.00 65 1013.0
20260905180636 93 336 1.0 3.0 0.00 0.00 0.00 67 1013.1
20260905180138 92 150 0.0 2.0 0.00 0.00 0.00 67 1013.3
20260905175831 91 236 0.0 2.0 0.00 0.00 0.00 69 1013.4
20260905175108 90 236 0.0 2.0 0.00 0.00 0.00 69 1013.5
20260905174542 90 234 0.0 2.0 0.00 0.00 0.00 71 1013.6
20260905174038 90 235 0.0 2.0 0.00 0.00 0.00 70 1013.6
20260905173511 90 234 1.0 2.0 0.00 0.00 0.00 71 1013.7
20260905173219 90 261 1.0 2.0 0.00 0.00 0.00 72 1013.8
20260905172418 90 288 1.0 4.0 0.00 0.00 0.00 70 1013.8
20260905171919 91 309 1.0 4.0 0.00 0.00 0.00 68 1013.8
20260905171359 91 329 1.0 3.0 0.00 0.00 0.00 68 1013.8
20260905170822 91 302 1.0 4.0 0.00 0.00 0.00 68 1013.9
20260905170321 92 312 0.0 4.0 0.00 0.00 0.00 68 1013.9
20260905165754 92 5 1.0 4.0 0.00 0.00 0.00 69 1013.9
20260905165514 92 97 1.0 4.0 0.00 0.00 0.00 70 1014.1
20260905164749 92 92 2.0 4.0 0.00 0.00 0.00 71 1014.1
20260905164223 91 306 1.0 4.0 0.00 0.00 0.00 70 1014.0
20260905163720 91 287 0.0 2.0 0.00 0.00 0.00 72 1014.1
20260905163157 91 161 1.0 3.0 0.00 0.00 0.00 72 1014.1
20260905162658 90 161 1.0 4.0 0.00 0.00 0.00 73 1014.1
20260905162132 89 290 1.0 4.0 0.00 0.00 0.00 72 1014.1
20260905161629 89 192 0.0 2.0 0.00 0.00 0.00 74 1014.1
20260905161104 89 266 1.0 3.0 0.00 0.00 0.00 73 1014.2
20260905160607 90 213 1.0 3.0 0.00 0.00 0.00 74 1014.2
20260905160040 90 311 1.0 3.0 0.00 0.00 0.00 74 1014.2
20260905155540 89 195 1.0 3.0 0.00 0.00 0.00 77 1014.1
20260905155014 89 195 1.0 3.0 0.00 0.00 0.00 78 1014.1
20260905154511 89 193 0.0 3.0 0.00 0.00 0.00 78 1014.1
20260905153947 88 194 1.0 2.0 0.00 0.00 0.00 78 1014.2
20260905153445 88 304 1.0 4.0 0.00 0.00 0.00 79 1014.2
20260905152920 88 301 2.0 4.0 0.00 0.00 0.00 79 1014.2
20260905152620 87 293 2.0 4.0 0.00 0.00 0.00 79 1014.2
20260905151829 87 326 1.0 4.0 0.00 0.00 0.00 79 1014.2
20260905151328 86 323 1.0 3.0 0.00 0.00 0.00 81 1014.2
20260905150801 86 301 2.0 3.0 0.00 0.00 0.00 84 1014.2
20260905150300 86 298 1.0 3.0 0.00 0.00 0.00 85 1014.2
20260905145735 85 293 1.0 3.0 0.00 0.00 0.00 86 1014.1
20260905145235 85 333 0.0 3.0 0.00 0.00 0.00 87 1014.0
20260905144712 84 333 0.0 3.0 0.00 0.00 0.00 91 1014.1
20260905144212 84 132 0.0 1.0 0.00 0.00 0.00 92 1014.1
20260905143711 84 132 0.0 2.0 0.00 0.00 0.00 93 1014.1
20260905143208 83 131 0.0 2.0 0.00 0.00 0.00 93 1014.1
20260905142708 83 39 0.0 2.0 0.00 0.00 0.00 95 1014.0
20260905142141 82 39 0.0 2.0 0.00 0.00 0.00 95 1014.0
20260905141617 82 132 0.0 2.0 0.00 0.00 0.00 96 1013.9
20260905141557 81 133 0.0 1.0 0.00 0.00 0.00 96 1014.0
20260905140616 81 163 0.0 1.0 0.00 0.00 0.00 96 1014.0
20260905140056 81 164 0.0 1.0 0.00 0.00 0.00 97 1014.1
20260905135536 80 174 0.0 1.0 0.00 0.00 0.00 97 1014.1
20260905135033 80 174 0.0 1.0 0.00 0.00 0.00 97 1014.0
20260905134735 80 174 0.0 1.0 0.00 0.00 0.00 97 1013.9
20260905133943 80 174 0.0 0.0 0.00 0.00 0.00 97 1013.9
20260905133643 80 174 0.0 1.0 0.00 0.00 0.00 97 1013.9
20260905132917 80 174 0.0 2.0 0.00 0.00 0.00 97 1013.9
20260905132418 80 174 1.0 2.0 0.00 0.00 0.00 98 1013.9
20260905131852 79 176 0.0 2.0 0.00 0.00 0.00 98 1013.9
20260905131546 79 178 0.0 1.0 0.00 0.00 0.00 98 1013.9
20260905130830 79 178 0.0 1.0 0.00 0.00 0.00 97 1013.9
20260905130311 78 179 0.0 1.0 0.00 0.00 0.00 98 1013.8
20260905125810 78 180 0.0 1.0 0.00 0.00 0.00 98 1013.8
20260905125309 78 180 0.0 1.0 0.00 0.00 0.00 98 1013.7
20260905124808 78 184 0.0 1.0 0.00 0.00 0.00 98 1013.7
20260905124304 77 185 0.0 0.0 0.00 0.00 0.00 97 1013.6
20260905123804 77 185 0.0 0.0 0.00 0.00 0.00 97 1013.5
20260905123243 77 185 0.0 0.0 0.00 0.00 0.00 97 1013.5
20260905122742 76 185 0.0 0.0 0.00 0.00 0.00 97 1013.5
20260905122222 76 185 0.0 0.0 0.00 0.00 0.00 97 1013.3
20260905121923 76 185 0.0 0.0 0.00 0.00 0.00 97 1013.2
20260905121130 76 185 0.0 0.0 0.00 0.00 0.00 97 1013.2
20260905120850 76 185 0.0 0.0 0.00 0.00 0.00 97 1013.2
20260905120108 76 185 0.0 0.0 0.00 0.00 0.00 97 1013.0
20260905115832 76 185 0.0 0.0 0.00 0.00 0.00 97 1013.0
20260905115041 76 185 0.0 0.0 0.00 0.00 0.00 97 1013.1
20260905114516 77 185 0.0 0.0 0.00 0.00 0.00 97 1013.0
20260905113954 77 185 0.0 0.0 0.00 0.00 0.00 97 1013.0
20260905113426 77 185 0.0 0.0 0.00 0.00 0.00 97 1012.9
20260905112859 77 185 0.0 0.0 0.00 0.00 0.00 97 1012.9
20260905112601 77 185 0.0 0.0 0.00 0.00 0.00 97 1012.8
20260905112051 77 185 0.0 0.0 0.00 0.00 0.00 97 1012.7
20260905111555 77 185 0.0 0.0 0.00 0.00 0.00 97 1012.7
20260905110810 77 185 0.0 1.0 0.00 0.00 0.00 97 1012.6
20260905110246 77 185 0.0 1.0 0.00 0.00 0.00 97 1012.5
20260905105721 77 185 0.0 1.0 0.00 0.00 0.00 97 1012.5
20260905105429 77 185 0.0 1.0 0.00 0.00 0.00 97 1012.5
20260905104708 77 185 0.0 0.0 0.00 0.00 0.00 97 1012.5
20260905104207 77 185 0.0 0.0 0.00 0.00 0.00 96 1012.4
20260905103931 77 185 0.0 0.0 0.00 0.00 0.00 96 1012.4
20260905103145 77 185 0.0 0.0 0.00 0.00 0.00 96 1012.5
20260905102642 77 185 0.0 0.0 0.00 0.00 0.00 96 1012.5
20260905102118 77 185 0.0 0.0 0.00 0.00 0.00 96 1012.5
20260905101811 77 185 0.0 0.0 0.00 0.00 0.00 96 1012.4
20260905101542 77 185 0.0 0.0 0.00 0.00 0.00 96 1012.4
20260905100535 77 185 0.0 0.0 0.00 0.01 0.00 96 1012.4
20260905100256 77 185 0.0 0.0 0.00 0.01 0.00 96 1012.4
20260905095512 77 185 0.0 0.0 0.00 0.02 0.00 96 1012.4
20260905094958 77 185 0.0 0.0 0.00 0.02 0.00 96 1012.4
20260905094500 77 185 0.0 0.0 0.00 0.02 0.00 96 1012.3
20260905094157 77 185 0.0 0.0 0.00 0.02 0.00 96 1012.3
20260905093659 77 185 0.0 0.0 0.00 0.02 0.00 96 1012.4
20260905092908 77 185 0.0 0.0 0.00 0.02 0.00 96 1012.4
20260905092352 77 185 0.0 0.0 0.00 0.02 0.00 96 1012.4
20260905091851 77 185 0.0 0.0 0.00 0.02 0.00 96 1012.4
20260905091349 77 185 0.0 0.0 0.00 0.02 0.00 96 1012.3
20260905091115 77 185 0.0 0.0 0.00 0.02 0.00 96 1012.4
20260905090335 77 185 0.0 0.0 0.00 0.02 0.00 95 1012.4
20260905085833 77 185 0.0 0.0 0.00 0.02 0.00 95 1012.3
20260905085605 77 185 0.0 0.0 0.00 0.02 0.00 96 1012.4
20260905084832 77 185 0.0 0.0 0.00 0.02 0.00 95 1012.4
20260905084554 78 185 0.0 0.0 0.00 0.02 0.00 95 1012.3
20260905083830 78 185 0.0 0.0 0.00 0.02 0.00 95 1012.3
20260905083328 78 185 0.0 0.0 0.00 0.02 0.00 95 1012.3
20260905082826 78 185 0.0 0.0 0.00 0.02 0.00 95 1012.3
20260905082323 78 185 0.0 0.0 0.00 0.02 0.00 95 1012.3
20260905081823 78 185 0.0 0.0 0.00 0.02 0.00 95 1012.3
20260905081303 78 185 0.0 0.0 0.00 0.02 0.00 95 1012.3
20260905080736 78 185 0.0 0.0 0.00 0.02 0.00 95 1012.3
20260905080455 78 185 0.0 0.0 0.00 0.02 0.00 95 1012.3
20260905075738 78 185 0.0 0.0 0.00 0.02 0.00 95 1012.2
20260905075707 78 185 0.0 0.0 0.00 0.02 0.00 95 1012.3
20260905074719 78 185 0.0 0.0 0.00 0.02 0.00 95 1012.4
20260905074205 78 185 0.0 0.0 0.00 0.02 0.00 95 1012.4
20260905073642 78 185 0.0 0.0 0.00 0.02 0.00 95 1012.5
20260905073120 78 185 0.0 0.0 0.00 0.02 0.00 94 1012.5
20260905072849 78 185 0.0 0.0 0.00 0.02 0.00 94 1012.6
20260905072104 78 185 0.0 0.0 0.00 0.02 0.00 94 1012.7
20260905071545 78 185 0.0 0.0 0.00 0.02 0.00 94 1012.7
20260905071024 78 185 0.0 0.0 0.00 0.02 0.00 94 1012.8
20260905070510 78 185 0.0 0.0 0.00 0.02 0.00 94 1012.7
20260905070008 78 185 0.0 0.0 0.00 0.02 0.00 94 1012.8
20260905065508 79 185 0.0 0.0 0.00 0.02 0.00 94 1012.8
20260905064951 78 185 0.0 0.0 0.00 0.02 0.00 94 1012.8
20260905064432 78 185 0.0 0.0 0.00 0.02 0.00 93 1012.9
20260905063930 79 185 0.0 0.0 0.00 0.02 0.00 93 1012.9
20260905063431 79 185 0.0 0.0 0.00 0.02 0.00 93 1013.0
20260905062908 79 185 0.0 0.0 0.00 0.02 0.00 93 1013.0
20260905062618 79 185 0.0 0.0 0.00 0.02 0.00 93 1013.0
20260905061857 79 185 0.0 0.0 0.00 0.02 0.00 93 1013.0
20260905061337 79 185 0.0 0.0 0.00 0.02 0.00 93 1013.0
20260905060837 79 185 0.0 0.0 0.00 0.02 0.00 93 1013.0
20260905060559 79 185 0.0 0.0 0.00 0.02 0.00 93 1013.1
20260905055835 79 185 0.0 0.0 0.00 0.02 0.00 92 1013.1
20260905055601 79 185 0.0 0.0 0.00 0.02 0.00 92 1012.9
20260905055052 79 185 0.0 0.0 0.00 0.02 0.00 92 1013.0
20260905054329 79 185 0.0 0.0 0.00 0.02 0.00 92 1013.0
20260905053822 80 185 0.0 0.0 0.00 0.02 0.00 92 1012.9
20260905053321 80 185 0.0 0.0 0.00 0.02 0.00 92 1013.0
20260905052816 80 185 0.0 0.0 0.00 0.02 0.00 92 1013.0
20260905052316 80 185 0.0 0.0 0.00 0.02 0.00 91 1013.1
20260905051814 80 185 0.0 0.0 0.00 0.02 0.00 91 1013.2
20260905051259 80 185 0.0 0.0 0.00 0.02 0.00 91 1013.1
20260905050734 80 185 0.0 0.0 0.00 0.02 0.00 91 1013.2
20260905050236 80 185 0.0 0.0 0.00 0.02 0.00 91 1013.2
20260905045727 80 185 0.0 0.0 0.00 0.02 0.02 91 1013.1
20260905045229 80 185 0.0 0.0 0.00 0.02 0.02 90 1013.1
20260905044706 80 185 0.0 0.0 0.00 0.02 0.02 90 1013.1
20260905044139 80 185 0.0 0.0 0.00 0.02 0.02 90 1013.1
20260905043612 80 185 0.0 0.0 0.00 0.02 0.02 90 1013.1
20260905043108 80 185 0.0 0.0 0.00 0.02 0.02 90 1013.0
20260905042828 80 185 0.0 0.0 0.00 0.02 0.02 90 1013.1
20260905042259 80 185 0.0 0.0 0.00 0.02 0.02 89 1013.2
20260905041535 80 185 0.0 0.0 0.00 0.02 0.02 89 1013.1
20260905041255 80 185 0.0 1.0 0.00 0.02 0.02 89 1013.1
20260905040524 80 185 0.0 2.0 0.00 0.02 0.02 89 1013.1
20260905040023 80 186 0.0 2.0 0.00 0.02 0.02 89 1013.1
20260905035524 80 178 0.0 0.0 0.00 0.02 0.02 89 1013.2
20260905034951 80 178 0.0 1.0 0.00 0.02 0.02 89 1013.2
20260905034422 80 178 0.0 1.0 0.00 0.02 0.02 89 1013.2
20260905034143 80 178 0.0 1.0 0.00 0.02 0.02 88 1013.3
20260905033352 80 178 0.0 1.0 0.00 0.02 0.02 88 1013.3
20260905032851 80 178 0.0 1.0 0.00 0.02 0.02 88 1013.2
20260905032544 80 178 0.0 1.0 0.00 0.02 0.02 88 1013.2
20260905031820 80 178 0.0 0.0 0.00 0.02 0.02 87 1013.4
20260905031316 80 177 0.0 0.0 0.00 0.02 0.02 87 1013.4
20260905030814 80 178 0.0 0.0 0.00 0.02 0.02 86 1013.4
20260905030247 80 178 0.0 0.0 0.00 0.02 0.02 86 1013.4
20260905025745 80 177 0.0 0.0 0.00 0.02 0.02 86 1013.3
20260905025216 80 178 0.0 0.0 0.00 0.02 0.02 85 1013.2
20260905024715 80 177 0.0 0.0 0.00 0.02 0.02 85 1013.2
20260905024147 80 178 0.0 0.0 0.00 0.02 0.02 85 1013.2
20260905023642 80 177 0.0 0.0 0.00 0.02 0.02 84 1013.1
20260905023141 81 178 0.0 0.0 0.00 0.02 0.02 84 1013.1
20260905022637 81 178 0.0 0.0 0.00 0.02 0.02 83 1013.0
20260905022131 81 178 0.0 0.0 0.00 0.02 0.02 83 1013.0
20260905021605 81 178 0.0 0.0 0.00 0.02 0.02 82 1013.0
20260905021101 81 177 0.0 0.0 0.00 0.02 0.02 82 1012.9
20260905020534 81 178 0.0 0.0 0.00 0.02 0.02 81 1012.8
20260905020032 81 178 0.0 0.0 0.00 0.02 0.02 81 1012.8
20260905015504 82 178 0.0 0.0 0.00 0.02 0.02 81 1012.5
20260905015226 82 178 0.0 0.0 0.00 0.02 0.02 80 1012.5
20260905014435 82 178 0.0 1.0 0.00 0.02 0.02 80 1012.6
20260905014148 82 178 0.0 3.0 0.00 0.02 0.02 79 1012.5
20260905013823 83 178 1.0 4.0 0.00 0.02 0.02 79 1012.4
20260905013446 82 177 1.0 3.0 0.00 0.02 0.02 79 1012.5
20260905012354 83 198 1.0 4.0 0.00 0.02 0.02 79 1012.4
20260905011826 83 187 1.0 4.0 0.00 0.02 0.02 79 1012.5
20260905011548 84 186 2.0 6.0 0.00 0.02 0.02 79 1012.4
20260905010756 84 148 2.0 6.0 0.00 0.02 0.02 81 1012.4
20260905010256 85 198 2.0 7.0 0.00 0.02 0.02 80 1012.4
20260905005757 85 161 1.0 7.0 0.00 0.02 0.02 79 1012.4
20260905005503 85 147 0.0 3.0 0.00 0.02 0.02 78 1012.2
20260905005237 85 85 0.0 1.0 0.00 0.02 0.02 77 1012.1
20260905004214 86 85 0.0 2.0 0.00 0.02 0.02 76 1012.0
20260905003710 86 85 0.0 2.0 0.00 0.02 0.02 76 1012.1
20260905003144 86 84 0.0 5.0 0.00 0.02 0.02 76 1012.0
20260905002642 86 84 0.0 5.0 0.00 0.02 0.02 75 1011.8
20260905002140 87 83 1.0 5.0 0.00 0.02 0.02 74 1011.8
20260905001853 87 80 1.0 5.0 0.00 0.02 0.02 74 1011.8
20260905001129 87 134 1.0 3.0 0.00 0.02 0.02 74 1011.7
20260905000603 87 142 0.0 3.0 0.00 0.02 0.02 74 1011.7
20260905000100 87 143 1.0 5.0 0.00 0.02 0.02 74 1011.7
20260904235546 87 150 1.0 5.0 0.00 0.02 0.02 74 1011.8
20260904235046 87 112 1.0 5.0 0.00 0.02 0.02 74 1011.8
20260904234547 87 75 1.0 5.0 0.00 0.02 0.02 73 1011.8
20260904234241 87 84 1.0 6.0 0.00 0.02 0.02 73 1011.9
20260904233517 87 84 2.0 8.0 0.00 0.02 0.02 74 1011.8
20260904233014 87 74 1.0 8.0 0.00 0.02 0.02 76 1011.9
20260904232730 87 83 1.0 6.0 0.00 0.02 0.02 77 1011.9
20260904232010 87 34 1.0 4.0 0.00 0.02 0.02 77 1011.8
20260904231504 87 109 0.0 3.0 0.00 0.02 0.02 77 1011.7
20260904231002 87 84 1.0 5.0 0.00 0.02 0.02 76 1011.8
20260904230434 87 84 1.0 5.0 0.00 0.02 0.02 75 1011.7
20260904230156 87 61 1.0 8.0 0.00 0.02 0.02 74 1011.8
20260904225404 87 60 2.0 8.0 0.00 0.02 0.02 74 1011.8
20260904224836 87 90 2.0 8.0 0.00 0.02 0.02 74 1011.8
20260904224311 88 75 1.0 8.0 0.00 0.02 0.02 73 1011.8
20260904223804 88 65 1.0 5.0 0.00 0.02 0.02 74 1011.8
20260904223302 89 78 1.0 7.0 0.00 0.02 0.02 73 1011.8
20260904222732 90 79 2.0 7.0 0.00 0.02 0.02 72 1011.9
20260904222228 91 65 2.0 11.0 0.00 0.02 0.02 72 1012.0
20260904221726 92 82 3.0 11.0 0.00 0.02 0.02 70 1012.1
20260904221159 92 86 2.0 5.0 0.00 0.02 0.02 68 1012.0
20260904220656 92 24 1.0 4.0 0.00 0.02 0.02 70 1012.0
20260904220153 92 11 1.0 4.0 0.00 0.02 0.02 69 1012.0
20260904215649 92 129 1.0 3.0 0.00 0.02 0.02 68 1012.1
20260904215129 92 134 1.0 3.0 0.00 0.02 0.02 71 1012.2
20260904214630 92 70 0.0 2.0 0.00 0.02 0.02 70 1012.0
20260904214346 91 71 1.0 2.0 0.00 0.02 0.02 71 1011.9
20260904213627 91 71 1.0 3.0 0.00 0.02 0.02 71 1012.0
20260904213130 91 53 1.0 4.0 0.00 0.02 0.02 71 1012.0
20260904212603 91 155 1.0 4.0 0.00 0.02 0.02 71 1012.1
20260904212036 90 277 1.0 3.0 0.00 0.02 0.02 71 1012.1
20260904211508 91 199 0.0 2.0 0.00 0.02 0.02 71 1012.2
20260904210943 90 198 1.0 3.0 0.00 0.02 0.02 72 1012.2
20260904210417 91 170 1.0 3.0 0.00 0.02 0.02 72 1012.4
20260904205851 91 126 1.0 3.0 0.00 0.02 0.02 70 1012.5
20260904205347 91 308 1.0 5.0 0.00 0.02 0.02 71 1012.6
20260904204840 91 296 1.0 5.0 0.00 0.02 0.02 70 1012.8
20260904204338 92 139 1.0 4.0 0.00 0.02 0.02 70 1012.8
20260904203811 91 177 1.0 4.0 0.00 0.02 0.02 70 1013.0
20260904203251 91 282 1.0 3.0 0.00 0.02 0.02 73 1013.1